Find Kosmos-940

NORAD ID: 10286 Int'l Des: 1977-079 Owner: GUKOSR Country: SU operational
LEOCIRCULAR

Current View

Loading 3D Globe...

About Kosmos-940

Description loading...

Upcoming Passes

Passes for default location (London). Set your location on the main map for personalized predictions.

Altitude History

Loading altitude history...

Two-Line Element Set

1 10286U 77079B 26151.14296389 -.00000026 00000-0 -52492-4 0 9990
2 10286 74.0254 311.2768 0043847 243.0541 237.1792 12.58902634210031
Epoch: May 31, 2026 • Age: 9 hours

Current Status

Altitude 1451.7 km
Velocity 7.13 km/s
Sub-Earth Point 13.36°N, 120.39°W
Launch Date Aug 24, 1977
Age 48.7 years
Type other

Technical Details

Classification Payload
Mass 60.00 kg
Dry Mass 60.00 kg
Total Mass 60.00 kg
Length 0.80 m
Diameter 0.80 m
Span 0.80 m
Shape Poly
Manufacturer NPOPM
Bus Type Strela-1 11F625
Phase Status In Orbit
Owner/State GUKOSR/SU

Most Searched